RH
46 47 44 49 49 55 75 65 78 51 59 51 48 45 39 31 26 26 24 23 24 21 26 36 76 93 88 79 88 89 87 92 91 87 83 77 58 49 44 35 25 26 24 24
62 45 48 52 46 43 46 50 60 55 53 35 38 35 36 31 25 28 25 25 30 30 29 32 38 75 94 95 95 94 92 91 90 88 85 73 58 49 43 31 27 27 26 24
70 48 46 59 45 40 39 35 39 57 43 36 37 36 30 26 26 27 27 27 28 30 35 36 42 50 73 87 91 91 91 90 89 88 84 70 58 50 39 30 27 27 27 23
72 37 53 29 25 31 33 32 32 30 26 37 35 28 26 26 26 26 26 26 27 27 29 34 46 55 67 87 92 92 92 90 89 87 81 68 58 50 42 30 29 28 26 22
62 59 38 34 26 26 38 33 28 31 27 28 26 28 35 33 36 39 38 34 35 34 37 37 39 49 57 67 79 88 90 91 90 87 81 66 62 49 35 30 31 30 26 23
64 69 59 29 25 25 24 41 31 33 31 36 32 38 46 32 30 32 36 34 32 33 38 43 42 48 56 62 69 76 79 81 85 82 74 69 50 39 33 32 32 31 27 26
74 69 53 29 26 26 36 37 35 36 36 35 44 40 35 34 30 29 29 29 28 29 31 35 43 52 54 59 60 60 66 71 75 72 64 56 46 38 34 35 36 32 30 27
72 75 81 31 27 32 39 39 38 38 37 38 38 36 36 35 34 33 32 32 31 29 30 33 37 43 50 54 53 61 63 64 65 64 59 53 46 40 39 39 39 35 32 28
60 62 50 43 47 42 36 39 39 37 37 36 37 37 36 37 35 34 35 35 34 34 32 31 34 38 45 48 60 62 62 63 63 63 59 54 49 46 46 45 42 36 33 28
63 61 63 66 46 41 40 40 40 40 42 42 42 43 42 42 43 43 42 40 37 35 34 33 34 36 39 49 58 63 64 62 62 63 62 58 54 51 50 46 44 39 34 28
94 87 81 81 70 52 49 46 46 48 50 51 49 48 48 48 47 47 46 43 41 40 39 39 38 38 40 44 56 62 64 65 63 64 64 61 57 51 49 46 41 36 32 29
88 84 84 95 88 73 63 67 66 65 67 63 57 55 58 56 54 54 56 57 56 54 52 49 47 47 47 47 54 62 65 66 65 65 66 65 62 58 58 54 48 43 38 31
99 100 99 100 100 100 100 100 100 100 98 89 72 63 61 62 62 65 63 63 62 61 57 54 53 53 52 53 57 63 67 69 69 70 71 70 68 66 62 58 56 48 38 31
100 99 99 100 99 99 99 100 99 100 99 99 92 83 84 85 83 80 77 74 70 66 63 62 61 60 59 61 65 69 72 75 76 76 75 74 71 68 65 61 52 44 39 36
99 99 99 99 98 98 99 100 98 93 97 98 98 96 92 96 98 100 100 95 89 82 75 71 70 70 70 70 69 68 71 74 77 76 74 72 70 68 65 60 52 63 73 38
98 97 96 91 84 82 81 81 90 98 93 95 96 100 100 99 100 98 94 93 88 90 93 92 84 77 73 72 72 72 74 75 74 72 71 71 70 71 77 83 78 54 46 68
97 97 97 98 98 100 99 99 99 100 95 93 96 96 95 97 90 88 88 78 80 89 89 88 88 89 89 89 91 90 83 82 88 93 94 95 96 96 96 96 95 94 96 97
97 97 96 92 94 92 93 98 100 100 99 89 72 64 61 62 79 83 75 62 49 45 50 55 61 70 82 90 94 94 93 92 94 95 96 96 96 97 97 97 97 97 98 98
58 58 58 58 60 60 61 65 66 70 72 67 60 57 56 53 55 56 55 51 46 46 52 57 58 58 58 58 56 60 73 87 96 98 98 98 98 98 98 97 97 96 96 96
42 40 38 38 36 38 39 40 42 43 46 47 48 48 50 54 57 56 56 55 55 54 56 57 58 56 55 56 58 60 62 62 60 63 67 79 87 93 93 93 93 92 87 81
41 40 39 39 40 40 40 38 36 35 38 37 34 34 37 40 39 40 40 43 57 62 63 59 52 48 48 51 53 53 54 56 59 61 64 67 67 65 62 61 65 60 51 43
44 42 40 39 38 38 38 38 38 38 38 39 41 41 38 35 35 36 46 53 54 57 51 45 43 42 42 45 46 46 48 51 53 53 52 52 52 54 58 61 60 58 56 54
49 50 50 49 50 53 52 48 48 47 47 50 54 56 56 59 59 56 50 52 58 55 56 52 50 51 51 53 54 51 49 47 47 50 54 57 57 58 55 50 48 48 47 46
57 59 61 64 65 64 62 66 68 73 77 79 79 80 78 74 65 68 70 70 69 67 66 67 66 70 99 81 71 69 66 63 61 60 56 54 60 68 70 63 60 60 59 59
66 67 69 72 78 80 83 83 79 76 78 79 77 74 76 77 84 79 74 71 70 74 75 68 68 68 67 68 68 68 68 68 67 71 77 82 86 95 99 98 100 97 86 72
70 71 75 80 82 81 80 80 82 81 85 85 79 75 75 76 75 70 69 72 75 77 79 79 79 79 78 76 76 75 77 78 82 83 84 87 98 100 100 100 100 98 99 98
65 68 68 69 71 75 79 91 91 85 89 94 97 90 90 84 78 77 78 80 83 85 86 85 84 84 86 89 89 90 91 92 94 94 98 99 100 98 98 97 96 94 95 95
Wind_Speed
10 9 4 7 7 10 13 22 9 26 17 26 16 15 17 12 15 14 13 13 14 12 15 20 23 32 36 36 36 36 37 41 43 41 39 36 34 32 29 28 26 23 21 21
6 13 11 12 14 16 19 21 20 26 26 14 13 20 19 14 10 13 12 11 11 11 12 17 23 26 28 30 32 33 35 38 39 37 36 35 34 32 31 28 26 24 24 23
5 7 7 4 20 17 19 18 20 18 30 6 7 6 9 9 7 8 8 8 8 8 10 14 18 23 27 29 30 31 33 35 37 37 37 35 34 33 30 28 27 26 25 24
4 3 9 7 7 13 16 19 17 20 24 7 11 13 8 4 8 9 8 8 8 7 8 9 14 17 21 25 27 28 31 33 35 35 35 35 34 30 31 28 28 27 27 25
6 8 11 14 6 5 7 9 6 19 22 11 13 13 4 5 4 4 1 4 4 4 4 5 9 13 17 21 25 27 29 30 32 33 34 33 31 33 31 29 29 29 28 26
3 4 7 2 8 7 5 5 6 5 6 8 12 4 3 6 5 4 6 5 3 4 4 5 3 7 12 17 22 26 27 28 30 31 32 33 34 32 31 31 30 30 29 27
13 13 6 4 2 4 4 1 4 11 12 7 4 5 11 8 8 6 6 6 6 4 2 2 4 6 9 12 17 18 21 24 26 28 30 31 32 32 32 32 31 31 30 27
8 9 15 2 5 3 0 8 11 15 15 17 14 13 10 7 7 6 5 4 4 4 3 1 3 6 10 13 11 13 16 21 26 28 30 31 32 32 32 32 32 32 30 29
8 5 4 13 10 2 6 10 10 12 11 11 12 11 9 8 7 6 5 5 5 5 5 3 3 6 11 12 14 16 17 20 23 26 29 31 31 32 33 34 34 33 32 32
3 4 5 12 11 7 9 11 11 12 12 10 10 9 9 9 9 8 7 7 7 7 8 7 6 6 7 10 15 19 20 20 21 25 29 30 30 32 34 35 35 35 34 33
2 6 8 4 6 8 10 9 9 11 13 12 10 11 10 10 10 10 9 9 8 8 9 10 10 8 8 10 14 18 20 20 21 24 27 29 31 32 35 34 34 34 34 32
4 6 8 8 8 6 5 9 9 7 7 12 12 11 11 12 12 11 10 8 6 6 7 7 7 8 8 9 13 16 17 19 22 23 26 28 30 31 32 31 29 30 29 27
4 5 10 13 8 3 2 2 2 1 6 7 5 5 6 7 8 8 8 8 8 8 7 7 6 6 6 7 8 11 13 16 20 23 25 28 30 31 32 30 28 26 26 25
10 15 12 9 8 10 10 10 10 10 8 6 5 5 6 6 6 7 8 9 9 7 6 5 5 6 5 5 5 8 12 15 18 20 22 25 27 29 30 30 29 27 24 23
22 21 20 16 15 14 11 8 9 10 9 9 8 7 8 9 10 10 9 8 8 8 7 6 5 4 5 5 6 8 10 13 13 14 16 19 22 24 26 26 25 23 24 25
20 23 22 23 21 18 17 16 18 16 14 12 11 11 9 8 9 11 12 11 11 13 11 9 8 7 7 6 4 4 5 7 9 11 13 14 15 16 18 21 22 22 22 21
21 20 21 25 25 25 24 20 19 17 16 16 14 12 11 12 13 15 16 18 15 15 14 13 14 12 11 9 7 5 3 3 6 7 9 11 13 15 17 19 22 24 26 27
27 26 24 22 21 21 21 19 18 18 18 17 17 17 17 17 17 17 17 16 17 17 19 19 18 16 13 11 9 8 6 5 5 6 7 9 12 14 17 19 22 25 29 33
24 25 24 23 21 20 19 18 17 15 14 13 13 14 14 14 12 11 10 9 11 12 13 13 13 13 12 11 11 10 9 7 6 7 8 10 12 13 15 18 19 20 19 15
25 23 21 20 19 19 18 17 15 14 13 11 9 9 9 9 9 8 7 7 8 8 9 11 12 11 12 12 11 10 9 9 9 9 8 7 7 10 12 11 9 8 9 12
23 21 21 20 18 16 16 15 15 15 14 13 12 12 11 10 10 10 10 10 7 8 9 10 12 13 13 13 12 13 14 14 14 15 16 17 19 21 21 22 22 23 24 25
20 20 19 18 17 16 16 16 15 14 14 13 13 13 13 14 14 14 13 12 12 14 16 16 16 15 15 15 16 15 16 17 18 19 19 18 19 20 20 21 21 22 22 23
18 18 17 17 17 16 15 15 15 16 15 16 16 17 16 17 17 18 21 18 20 19 21 21 21 20 19 18 19 19 19 19 20 20 20 20 20 20 20 20 20 20 21 21
17 17 17 16 15 15 17 17 17 17 15 15 15 15 17 19 19 18 20 21 21 21 21 22 21 20 18 20 21 22 22 22 22 22 23 23 23 22 23 22 23 23 23 22
17 17 16 17 18 18 17 18 19 18 18 18 18 17 17 18 20 22 21 21 21 21 22 22 22 22 22 21 21 21 21 22 22 22 23 24 24 25 24 24 24 24 24 24
17 16 15 15 15 17 18 20 21 21 21 22 22 23 23 22 23 23 22 22 22 22 22 22 22 22 23 22 22 22 21 21 21 22 22 23 22 23 23 25 25 25 25 25
18 18 18 18 18 20 20 20 22 22 21 23 25 24 24 25 25 23 23 23 23 23 23 23 23 21 20 19 18 18 18 18 18 19 19 19 20 21 22 23 24 24 25 25
Wind_Direction
247 250 205 206 216 204 206 234 218 259 224 252 248 259 273 282 291 237 247 266 276 264 236 224 221 223 224 228 225 223 222 220 221 222 224 222 218 218 219 221 223 221 218 215
260 253 241 249 254 240 225 231 233 253 266 248 251 256 279 289 238 230 247 261 267 264 253 233 227 226 224 224 225 225 228 226 224 223 223 219 217 217 218 218 218 217 215 213
243 250 253 228 239 230 241 238 226 238 246 171 214 227 239 199 185 190 211 244 259 266 269 248 229 228 231 231 230 229 228 229 226 222 220 218 217 215 217 216 217 215 213 211
240 151 248 237 210 220 227 247 234 246 256 210 219 225 177 225 261 252 230 223 231 254 254 250 230 227 228 231 232 230 227 229 229 224 220 217 216 216 221 217 216 215 214 212
233 218 280 300 284 180 172 264 233 237 251 220 202 151 116 94 77 44 354 181 170 229 236 223 223 226 225 228 231 232 233 231 230 227 222 218 221 219 217 218 215 214 215 214
187 236 254 288 260 146 120 268 327 289 207 147 149 154 210 121 92 59 59 97 195 237 239 236 227 227 233 235 235 233 232 231 230 228 223 221 221 220 220 219 218 215 214 215
223 242 268 255 185 152 164 261 5 52 66 90 91 93 130 128 112 91 74 68 75 81 105 237 250 261 258 251 247 246 242 239 233 227 225 225 226 223 221 218 215 216 215 215
218 237 251 344 142 230 149 67 87 73 73 79 89 97 96 81 73 65 51 35 35 31 40 355 245 252 263 267 281 263 250 243 238 233 230 229 227 225 220 218 215 215 214 214
183 210 89 63 87 137 122 94 78 78 69 79 86 77 69 54 41 31 16 4 354 348 343 334 284 254 255 268 261 256 249 243 239 235 233 231 226 222 219 218 218 217 216 217
145 23 91 84 62 83 86 83 71 68 67 62 62 56 53 48 44 32 17 5 349 333 320 307 295 288 275 251 247 248 249 247 242 234 231 231 227 225 223 221 219 221 221 221
143 128 97 107 73 45 75 80 71 66 55 47 43 42 36 30 20 11 360 343 328 319 305 292 283 278 274 261 245 244 246 246 243 239 234 231 230 229 227 230 231 230 229 228
195 152 188 171 143 140 92 60 50 42 36 27 18 12 1 1 359 353 351 346 330 319 313 311 297 288 279 267 253 241 241 244 243 242 238 235 234 232 232 236 238 237 237 239
124 130 121 135 117 99 144 242 258 278 68 38 22 358 356 9 4 359 355 352 352 353 341 328 317 309 297 284 264 249 246 251 248 243 241 240 236 235 234 231 230 233 232 228
112 128 88 119 90 86 86 86 99 101 94 78 52 23 18 18 7 10 12 7 359 353 342 333 325 320 313 298 277 260 254 253 255 257 252 245 240 238 236 235 232 227 222 228
73 88 94 93 88 81 89 100 96 77 74 74 59 48 30 29 27 23 20 17 14 12 18 11 353 338 321 305 284 264 254 256 257 256 255 252 248 244 241 238 235 237 235 215
81 84 82 81 80 80 85 82 80 72 68 64 60 56 55 48 44 43 40 41 41 41 36 28 21 18 6 359 346 314 275 256 259 260 256 254 249 243 238 235 234 228 219 219
73 65 77 78 74 69 68 72 75 68 62 59 55 56 61 64 63 58 57 50 48 53 49 45 45 40 35 30 19 5 327 265 246 238 230 231 231 232 232 226 224 227 228 227
68 72 72 74 75 73 69 66 67 63 58 55 58 58 58 55 58 64 69 59 54 52 53 50 47 43 37 29 22 10 356 345 323 293 281 272 268 264 258 253 249 242 243 249
66 68 67 66 64 65 64 60 58 62 59 53 50 48 49 55 57 52 49 42 37 35 33 29 23 17 15 20 28 34 32 17 339 302 282 268 257 252 248 245 242 243 244 236
61 61 61 61 58 55 53 48 42 40 41 39 39 37 31 26 18 15 22 22 7 2 351 342 341 342 340 337 331 327 321 310 301 298 296 301 286 273 263 254 248 251 253 252
44 42 43 43 44 43 40 31 26 24 20 15 14 14 9 359 353 349 344 351 342 321 320 317 317 314 309 303 298 298 298 295 291 288 282 278 275 270 267 265 262 262 264 264
30 29 27 25 25 23 19 12 7 2 358 353 351 345 341 338 336 336 343 338 320 315 311 312 311 309 305 301 296 293 291 289 288 285 281 279 276 274 273 272 268 267 267 267
14 12 9 8 6 1 356 350 350 347 343 339 338 337 336 335 333 329 324 321 316 312 310 308 306 303 299 295 293 291 287 282 280 279 279 278 278 278 277 275 275 274 272 270
353 352 354 353 349 345 345 346 344 341 334 330 329 329 329 327 321 321 316 313 308 308 306 307 305 302 305 293 291 288 285 282 278 276 275 274 274 276 276 275 273 272 271 271
359 358 357 355 353 349 342 338 336 336 335 333 331 332 331 329 326 326 323 315 312 312 310 308 304 300 298 296 292 290 289 288 287 285 278 273 270 269 272 274 275 276 275 270
356 355 353 349 343 339 337 335 336 336 333 332 332 333 332 332 328 324 321 318 315 312 308 307 305 304 300 297 296 294 292 289 287 285 285 283 281 277 276 273 270 268 267 269
346 346 344 343 344 342 340 339 335 335 335 332 327 328 326 326 325 323 320 318 317 315 313 312 311 309 306 303 301 299 295 293 291 291 291 287 283 279 277 276 272 270 268 266